1487948400.58,9706,9.56,71716.8,-12.23,-20.19,-16.75,0,*55
1487948401.82,9707,9.56,71738.0,-12.23,-18.83,-16.55,0,*5E
1487948403.05,9708,9.56,71732.0,-12.23,-18.25,-16.41,0,*58
1487948404.31,9709,9.56,71740.3,-12.23,-17.45,-15.71,0,*50
1487948405.55,9710,9.63,71760.8,-12.23,-16.83,-15.53,0,*53
1487948406.84,9711,9.56,71698.0,-12.23,-16.17,-15.43,0,*5E
1487948408.1,9712,9.63,71704.0,-12.23,-16.13,-15.67,0,*5F
1487948409.38,9713,9.63,71692.3,-12.23,-15.43,-15.01,0,*58
1487948410.64,9714,9.63,71730.5,-12.27,-15.07,-14.83,0,*50
1487948411.89,9715,9.56,71712.3,-12.23,-15.57,-15.11,0,*5A
1487948413.16,9716,9.56,71708.8,-12.27,-15.75,-15.35,0,*5B
1487948414.44,9717,9.56,71718.3,-12.27,-15.85,-15.89,0,*52
1487948415.7,9718,9.56,71732.0,-12.27,-16.03,-16.51,0,*56
1487948416.99,9719,9.56,71690.5,-12.27,-16.17,-16.09,0,*5F
1487948418.25,9720,9.56,71704.0,-12.29,-16.51,-16.23,0,*51
1487948419.49,9721,9.56,71714.3,-12.29,-16.75,-16.09,0,*5E
1487948420.78,9722,9.56,71758.0,-12.27,-16.65,-15.89,0,*59
1487948422.0,9723,9.63,71762.5,-12.29,-17.35,-16.03,0,*53
1487948423.24,9724,9.56,71724.5,-12.27,-16.75,-15.71,0,*59
1487948424.5,9725,9.63,71710.8,-12.27,-16.65,-15.63,0,*5A
1487948425.71,9726,9.56,71724.8,-12.29,-16.59,-15.71,0,*5B
1487948426.96,9727,9.56,71734.0,-12.29,-16.65,-15.71,0,*55
1487948428.19,9728,9.56,71742.5,-12.29,-16.23,-15.07,0,*59
1487948429.43,9729,9.63,71724.5,-12.31,-15.67,-14.89,0,*55
1487948430.7,9730,9.56,71732.8,-12.31,-15.39,-14.89,0,*56
1487948431.98,9731,9.56,71742.3,-12.31,-15.21,-14.79,0,*51
1487948433.24,9732,9.56,71774.3,-12.31,-15.11,-14.79,0,*51
1487948434.49,9733,9.56,71780.8,-12.33,-15.01,-14.79,0,*53
1487948435.72,9734,9.56,71774.0,-12.33,-15.07,-14.79,0,*52
1487948436.99,9735,9.56,71778.3,-12.31,-14.93,-14.65,0,*50
1487948438.19,9736,9.56,71750.5,-12.33,-14.61,-14.37,0,*5B
1487948439.43,9737,9.56,71712.3,-12.33,-14.23,-14.05,0,*5D
1487948440.67,9738,9.63,71676.3,-12.31,-14.23,-14.33,0,*55
1487948441.89,9739,9.56,71620.3,-12.33,-14.19,-14.19,0,*57
1487948443.1,9740,9.56,71636.8,-12.33,-14.23,-14.19,0,*50
1487948444.36,9741,9.63,71662.8,-12.33,-14.05,-14.05,0,*58
1487948445.66,9742,9.63,71722.8,-12.31,-14.01,-14.05,0,*5D
1487948446.92,9743,9.63,71726.0,-12.31,-14.01,-13.93,0,*54
1487948448.2,9744,9.63,71704.0,-12.31,-14.15,-14.01,0,*5A
1487948449.41,9745,9.56,71696.0,-12.33,-14.23,-14.23,0,*5C
1487948450.71,9746,9.56,71674.0,-12.31,-14.05,-14.01,0,*59
1487948452.01,9747,9.63,71686.5,-12.31,-14.05,-14.05,0,*5C
1487948453.28,9748,9.56,71670.5,-12.31,-14.05,-14.15,0,*52
1487948454.49,9749,9.56,71664.0,-12.29,-14.11,-14.11,0,*5B
1487948455.7,9750,9.56,71648.5,-12.29,-14.33,-14.29,0,*58
1487948456.97,9751,9.56,71676.5,-12.27,-14.47,-14.33,0,*5F
1487948458.18,9752,9.56,71680.3,-12.29,-14.19,-14.15,0,*5D
1487948459.43,9753,9.63,71684.0,-12.29,-14.15,-14.01,0,*55
1487948460.68,9754,9.56,71770.0,-12.29,-14.15,-13.97,0,*5A
1487948461.89,9755,9.56,71712.0,-12.29,-14.11,-14.11,0,*56
1487948463.14,9756,9.63,71714.0,-12.29,-14.15,-14.01,0,*50
1487948464.43,9757,9.63,71726.5,-12.27,-14.01,-13.87,0,*53
1487948465.69,9758,9.56,71724.5,-12.29,-14.01,-13.87,0,*52
1487948466.97,9759,9.56,71738.0,-12.27,-13.87,-13.83,0,*50
1487948468.24,9760,9.56,71734.5,-12.29,-13.97,-13.83,0,*55
1487948469.49,9761,9.63,71768.0,-12.29,-13.87,-13.83,0,*55
1487948470.74,9762,9.56,71778.3,-12.27,-14.15,-14.15,0,*5C
1487948472.03,9763,9.63,71766.0,-12.27,-14.43,-14.47,0,*59
1487948473.24,9764,9.56,71720.3,-12.29,-14.29,-14.33,0,*5F
1487948474.47,9765,9.56,71746.3,-12.29,-14.29,-14.43,0,*59
1487948475.73,9766,9.63,71764.3,-12.29,-14.43,-14.43,0,*56
1487948476.99,9767,9.63,71756.3,-12.29,-14.43,-14.47,0,*53
1487948478.27,9768,9.56,71734.0,-12.27,-14.43,-14.43,0,*56
1487948479.54,9769,9.56,71708.0,-12.29,-14.43,-14.47,0,*5D
1487948480.78,9770,9.63,71708.8,-12.27,-14.19,-14.29,0,*5C
1487948482.02,9771,9.63,71710.5,-12.29,-14.01,-14.11,0,*51
1487948483.26,9772,9.56,71708.3,-12.27,-14.15,-14.19,0,*51
1487948484.48,9773,9.56,71752.5,-12.29,-14.15,-14.19,0,*5E
1487948485.72,9774,9.56,71746.8,-12.29,-14.01,-14.15,0,*50
1487948486.98,9775,9.56,71742.0,-12.27,-14.33,-14.43,0,*5D
1487948488.23,9776,9.56,71742.0,-12.27,-14.33,-14.43,0,*5E
1487948489.46,9777,9.56,71738.0,-12.29,-14.69,-14.47,0,*5A
1487948490.71,9778,9.63,71710.5,-12.27,-14.69,-14.43,0,*5F
1487948491.99,9779,9.56,71690.5,-12.27,-14.75,-14.43,0,*53
1487948493.25,9780,9.63,71708.5,-12.27,-14.89,-14.47,0,*52
1487948494.5,9781,9.56,71706.8,-12.27,-14.89,-14.43,0,*57
1487948495.76,9782,9.63,71718.0,-12.27,-14.83,-14.33,0,*59
1487948497.02,9783,9.63,71718.5,-12.23,-14.55,-14.11,0,*57
1487948498.25,9784,9.63,71712.0,-12.23,-14.23,-13.93,0,*5C
1487948499.53,9785,9.63,71704.8,-12.23,-13.97,-13.79,0,*51
1487948500.78,9786,9.56,71732.5,-12.23,-13.93,-13.79,0,*56
1487948502.06,9787,9.63,71716.8,-12.23,-13.83,-13.79,0,*56
1487948503.31,9788,9.63,71716.5,-12.23,-13.97,-13.93,0,*58
1487948504.57,9789,9.56,71722.8,-12.23,-13.97,-13.93,0,*59
1487948505.8,9790,9.56,71720.3,-12.23,-13.93,-13.93,0,*55
1487948507.08,9791,9.56,71754.0,-12.23,-13.83,-13.83,0,*54
1487948508.3,9792,9.63,71754.5,-12.23,-13.93,-13.93,0,*57
1487948509.6,9793,9.56,71728.8,-12.23,-13.97,-13.97,0,*56
1487948510.89,9794,9.63,71734.0,-12.23,-13.97,-13.97,0,*51
1487948512.14,9795,9.63,71744.5,-12.23,-13.93,-13.83,0,*51
1487948513.42,9796,9.56,71728.5,-12.23,-13.83,-13.79,0,*56
1487948514.7,9797,9.56,71746.0,-12.23,-13.83,-13.79,0,*57
1487948515.98,9798,9.56,71758.0,-12.23,-13.83,-13.83,0,*5D
1487948517.23,9799,9.63,71786.3,-12.23,-13.79,-13.93,0,*58
1487948518.46,9800,9.56,71784.3,-12.23,-13.69,-13.93,0,*56
1487948519.69,9801,9.63,71784.3,-12.23,-13.93,-14.15,0,*5B
1487948520.96,9802,9.56,71772.8,-12.19,-14.05,-14.61,0,*5A
1487948522.2,9803,9.63,71778.0,-12.21,-14.11,-14.79,0,*5C
1487948523.41,9804,9.63,71778.5,-12.21,-14.19,-15.11,0,*5C
1487948524.63,9805,9.56,71770.3,-12.21,-14.65,-15.49,0,*5B
1487948525.89,9806,9.63,71776.8,-12.19,-15.25,-16.09,0,*51
1487948527.1,9807,9.63,71784.5,-12.21,-15.75,-15.95,0,*58
1487948528.31,9808,9.56,71796.3,-12.21,-15.67,-15.67,0,*59
1487948529.54,9809,9.56,71750.3,-12.19,-15.63,-15.75,0,*54
1487948530.81,9810,9.63,71736.8,-12.21,-15.89,-16.09,0,*5B
1487948532.04,9811,9.56,71752.3,-12.21,-16.55,-16.51,0,*55
1487948533.28,9812,9.63,71758.5,-12.21,-16.89,-15.81,0,*59
1487948534.51,9813,9.63,71752.3,-12.21,-16.69,-15.07,0,*58
1487948535.75,9814,9.56,71718.8,-12.21,-15.53,-14.75,0,*51
1487948536.97,9815,9.56,71700.5,-12.21,-15.07,-14.75,0,*51
1487948538.23,9816,9.56,71698.3,-12.21,-14.75,-14.75,0,*56
1487948539.46,9817,9.56,71678.8,-12.21,-14.61,-14.75,0,*52
1487948540.69,9818,9.63,71672.5,-12.21,-14.65,-14.93,0,*51
1487948541.92,9819,9.63,71654.5,-12.21,-14.89,-15.21,0,*5A
1487948543.15,9820,9.56,71658.0,-12.19,-14.89,-15.63,0,*5D
1487948544.38,9821,9.56,71744.8,-12.19,-15.11,-15.95,0,*55
1487948545.64,9822,9.56,71702.5,-12.21,-15.39,-16.13,0,*5A
1487948546.86,9823,9.63,71692.8,-12.21,-15.75,-16.79,0,*5F
1487948548.11,9824,9.56,71722.3,-12.21,-16.27,-17.79,0,*5D
1487948549.34,9825,9.56,71662.5,-12.21,-17.31,-17.93,0,*5E
1487948550.59,9826,9.56,71660.3,-12.21,-17.79,-17.41,0,*5E
1487948551.83,9827,9.63,71716.5,-12.21,-17.25,-16.41,0,*57
1487948553.04,9828,9.63,71702.0,-12.21,-16.41,-16.55,0,*5E
1487948554.3,9829,9.56,71762.3,-12.21,-16.27,-17.11,0,*5E
1487948555.56,9830,9.56,71716.8,-12.19,-16.83,-17.93,0,*59
1487948556.79,9831,9.56,71718.0,-12.19,-17.69,-18.45,0,*59
1487948558.05,9832,9.56,71634.5,-12.19,-18.17,-18.35,0,*5B
1487948559.32,9833,9.56,71646.3,-12.19,-18.01,-17.87,0,*5B
1487948560.58,9834,9.56,71690.8,-12.21,-18.01,-17.59,0,*54
1487948561.84,9835,9.56,71680.8,-12.21,-17.45,-17.11,0,*56
1487948563.12,9836,9.56,71638.0,-12.19,-17.11,-17.41,0,*5A
1487948564.38,9837,9.56,71606.8,-12.21,-17.25,-17.59,0,*5E
1487948565.62,9838,9.56,71676.5,-12.19,-17.73,-17.87,0,*5A
1487948566.83,9839,9.56,71698.0,-12.21,-18.17,-16.97,0,*5D
1487948568.07,9840,9.56,71742.0,-12.21,-17.17,-16.79,0,*5C
1487948569.3,9841,9.56,71724.5,-12.19,-17.69,-18.45,0,*5E
1487948570.51,9842,9.63,71668.8,-12.21,-18.79,-19.51,0,*5C
1487948571.72,9843,9.56,71708.0,-12.21,-19.99,-19.91,0,*5E
1487948572.92,9844,9.63,71714.5,-12.21,-20.93,-18.83,0,*5B
1487948574.17,9845,9.56,71716.5,-12.21,-19.41,-17.17,0,*5D
1487948575.41,9846,9.63,71686.5,-12.21,-18.49,-17.03,0,*52
1487948576.64,9847,9.63,71736.8,-12.19,-18.17,-16.55,0,*51
1487948577.88,9848,9.63,71710.8,-12.21,-17.87,-16.13,0,*51
1487948579.08,9849,9.56,71708.8,-12.21,-17.73,-15.99,0,*5A
1487948580.35,9850,9.63,71696.8,-12.21,-17.45,-15.35,0,*51
1487948581.61,9851,9.63,71666.8,-12.19,-16.55,-14.79,0,*52
1487948582.84,9852,9.56,71748.8,-12.21,-15.95,-14.75,0,*59
1487948584.08,9853,9.56,71722.5,-12.21,-15.89,-14.61,0,*50
1487948585.31,9854,9.63,71716.5,-12.21,-16.79,-14.79,0,*52
1487948586.58,9855,9.63,71696.0,-12.21,-16.09,-14.51,0,*5E
1487948587.78,9856,9.63,71686.8,-12.21,-15.53,-14.37,0,*51
1487948589.01,9857,9.56,71714.8,-12.21,-15.21,-14.23,0,*50
1487948590.22,9858,9.56,71692.0,-12.21,-14.89,-14.23,0,*5C
1487948591.42,9859,9.56,71686.8,-12.21,-15.11,-14.65,0,*5F
1487948592.67,9860,9.63,71700.0,-12.21,-14.97,-14.75,0,*5B
1487948593.93,9861,9.63,71728.8,-12.21,-14.79,-14.51,0,*5C
1487948595.16,9862,9.63,71754.5,-12.23,-14.69,-14.65,0,*5B
1487948596.44,9863,9.63,71758.5,-12.23,-14.93,-14.83,0,*57
1487948597.67,9864,9.56,71770.0,-12.21,-14.65,-14.47,0,*53
1487948598.95,9865,9.63,71766.0,-12.23,-14.55,-14.51,0,*54
1487948600.24,9866,9.63,71734.3,-12.23,-14.79,-14.79,0,*53
1487948601.52,9867,9.63,71738.3,-12.23,-14.83,-14.79,0,*57
1487948602.81,9868,9.63,71716.5,-12.23,-14.79,-14.83,0,*58
1487948604.09,9869,9.63,71696.3,-12.23,-14.55,-14.55,0,*5C
1487948605.34,9870,9.63,71684.8,-12.27,-14.69,-14.75,0,*5D
1487948606.56,9871,9.63,71722.3,-12.29,-14.19,-14.19,0,*5F
1487948607.85,9872,9.56,71732.3,-12.27,-14.01,-14.01,0,*52
1487948609.14,9873,9.56,71744.5,-12.27,-14.01,-14.01,0,*53
1487948610.44,9874,9.63,71748.3,-12.27,-14.01,-14.01,0,*54
1487948611.73,9875,9.63,71762.8,-12.27,-14.01,-14.01,0,*55
1487948612.97,9876,9.63,71746.0,-12.27,-14.19,-14.15,0,*5A
1487948614.27,9877,9.63,71724.3,-12.27,-14.01,-14.01,0,*57
1487948615.55,9878,9.63,71730.3,-12.27,-13.87,-13.87,0,*58
1487948616.84,9879,9.56,71766.3,-12.27,-13.97,-13.97,0,*59
1487948618.07,9880,9.63,71754.0,-12.23,-14.11,-14.11,0,*5B
1487948619.33,9881,9.56,71744.0,-12.23,-14.29,-14.43,0,*56
1487948620.58,9882,9.63,71756.3,-12.23,-14.29,-14.43,0,*55
1487948621.83,9883,9.56,71744.5,-12.23,-14.55,-14.69,0,*57
1487948623.1,9884,9.56,71744.5,-12.27,-14.75,-14.89,0,*58
1487948624.33,9885,9.63,71764.8,-12.27,-15.49,-15.15,0,*53
1487948625.58,9886,9.56,71756.0,-12.27,-15.99,-15.01,0,*58
1487948626.85,9887,9.63,71742.0,-12.29,-16.09,-14.83,0,*56
1487948628.09,9888,9.63,71724.8,-12.29,-15.29,-14.55,0,*53
1487948629.35,9889,9.63,71748.3,-12.29,-14.83,-14.43,0,*54
1487948630.61,9890,9.63,71756.8,-12.29,-14.75,-14.47,0,*51
1487948631.87,9891,9.63,71754.3,-12.27,-14.55,-14.33,0,*5F
1487948633.08,9892,9.63,71738.0,-12.29,-14.33,-14.29,0,*59
1487948634.36,9893,9.63,71716.8,-12.29,-14.47,-14.47,0,*53
1487948635.62,9894,9.63,71696.8,-12.27,-14.43,-14.19,0,*55
1487948636.85,9895,9.63,71680.5,-12.29,-14.43,-14.29,0,*59
1487948638.09,9896,9.63,71672.5,-12.29,-14.43,-14.33,0,*51
1487948639.32,9897,9.63,71650.3,-12.27,-14.29,-14.29,0,*59
1487948640.56,9898,9.63,71652.5,-12.27,-14.29,-14.19,0,*55
1487948641.77,9899,9.63,71664.3,-12.29,-14.33,-14.33,0,*59
1487948642.98,9900,9.63,71672.3,-12.29,-14.33,-14.33,0,*58
1487948644.22,9901,9.63,71702.3,-12.31,-14.37,-14.37,0,*50
1487948645.48,9902,9.63,71614.3,-12.31,-14.79,-14.89,0,*5C
1487948646.69,9903,9.63,71676.0,-12.33,-14.65,-14.61,0,*54
1487948647.96,9904,9.63,71678.3,-12.31,-14.37,-14.47,0,*52
1487948649.23,9905,9.63,71624.3,-12.31,-14.33,-14.47,0,*57
1487948650.5,9906,9.63,71626.0,-12.33,-14.47,-14.79,0,*58
1487948651.76,9907,9.63,71508.3,-12.33,-14.47,-14.93,0,*5D
1487948653.03,9908,9.63,71562.8,-12.31,-14.65,-15.39,0,*51
1487948654.29,9909,9.63,71628.3,-12.31,-14.93,-15.75,0,*51
1487948655.58,9910,9.63,71632.8,-12.31,-15.35,-16.13,0,*57
1487948656.81,9911,9.63,71664.0,-12.31,-16.37,-17.31,0,*56
1487948658.05,9912,9.63,71646.5,-12.31,-16.97,-17.73,0,*59
1487948659.31,9913,9.63,71660.0,-12.33,-17.41,-18.89,0,*5A
1487948660.57,9914,9.63,71652.3,-12.31,-18.01,-18.73,0,*51
1487948661.83,9915,9.63,71614.3,-12.29,-18.01,-18.55,0,*5D
1487948663.04,9916,9.63,71592.5,-12.33,-18.73,-18.49,0,*5D
1487948664.27,9917,9.56,71606.0,-12.33,-19.23,-19.07,0,*53
1487948665.54,9918,9.56,71604.0,-12.33,-18.93,-19.57,0,*53
1487948666.8,9919,9.63,71632.0,-12.31,-19.41,-22.37,0,*50
1487948668.05,9920,9.56,71574.0,-12.31,-22.07,-24.87,0,*5D
1487948669.32,9921,9.63,71598.0,-12.31,-23.95,-25.39,0,*52
1487948670.56,9922,9.56,71546.0,-12.29,-24.41,-25.23,0,*5D
1487948671.81,9923,9.63,71584.3,-12.31,-24.77,-25.09,0,*58
1487948673.02,9924,9.63,71606.0,-12.33,-24.47,-24.93,0,*5C
1487948674.26,9925,9.63,71600.5,-12.31,-24.77,-25.39,0,*5D
1487948675.55,9926,9.63,71606.0,-12.31,-24.87,-25.29,0,*50
1487948676.79,9927,9.56,71594.3,-12.31,-24.97,-25.23,0,*5A
1487948678.05,9928,9.63,71530.0,-12.31,-24.87,-24.77,0,*54
1487948679.32,9929,9.63,71616.0,-12.31,-24.71,-24.31,0,*5E
1487948680.62,9930,9.56,71626.3,-12.31,-24.71,-23.33,0,*53
1487948681.86,9931,9.63,71630.5,-12.31,-24.61,-21.93,0,*5B
1487948683.15,9932,9.63,71680.5,-12.31,-23.29,-19.23,0,*53
1487948684.41,9933,9.63,71666.3,-12.31,-21.13,-17.45,0,*57
1487948685.67,9934,9.56,71632.3,-12.31,-18.59,-16.93,0,*5E
1487948686.9,9935,9.63,71636.5,-12.33,-18.17,-17.59,0,*50
1487948688.17,9936,9.63,71622.5,-12.31,-18.01,-18.49,0,*58
1487948689.42,9937,9.56,71650.8,-12.33,-18.89,-19.23,0,*56
1487948690.64,9938,9.63,71660.8,-12.33,-19.85,-18.99,0,*54
1487948691.9,9939,9.63,71616.3,-12.31,-20.29,-18.31,0,*59
1487948693.14,9940,9.56,71644.8,-12.33,-19.51,-17.59,0,*51
1487948694.37,9941,9.63,71648.5,-12.33,-18.93,-16.55,0,*52
1487948695.61,9942,9.63,71622.0,-12.33,-17.93,-15.53,0,*5B
1487948696.88,9943,9.63,71656.3,-12.33,-17.41,-15.01,0,*52
1487948698.14,9944,9.63,71660.5,-12.31,-16.69,-14.89,0,*5D
1487948699.41,9945,9.63,71658.5,-12.31,-15.81,-14.65,0,*5B
1487948700.64,9946,9.63,71678.8,-12.33,-15.11,-14.51,0,*54
1487948701.9,9947,9.63,71704.8,-12.33,-14.75,-14.47,0,*51
1487948703.13,9948,9.63,71728.3,-12.33,-14.51,-14.37,0,*5F
1487948704.38,9949,9.63,71748.5,-12.35,-14.19,-14.23,0,*51
1487948705.64,9950,9.63,71684.0,-12.33,-14.79,-14.79,0,*56
1487948706.92,9951,9.63,71702.0,-12.35,-14.75,-14.75,0,*51
1487948708.16,9952,9.63,71712.3,-12.35,-14.23,-14.23,0,*52
1487948709.4,9953,9.63,71682.3,-12.35,-14.19,-14.33,0,*5B
1487948710.67,9954,9.63,71702.0,-12.35,-14.19,-14.51,0,*58
1487948711.92,9955,9.63,71618.8,-12.33,-14.79,-14.93,0,*57
1487948713.19,9956,9.63,71670.5,-12.33,-14.51,-14.51,0,*50
1487948714.42,9957,9.63,71678.0,-12.33,-14.65,-14.47,0,*51
1487948715.65,9958,9.63,71666.8,-12.33,-14.75,-14.65,0,*5F
1487948716.91,9959,9.63,71676.5,-12.33,-14.79,-14.79,0,*5F
1487948718.16,9960,9.63,71650.8,-12.33,-14.93,-14.93,0,*55
1487948719.42,9961,9.63,71624.3,-12.39,-14.93,-14.93,0,*5E
1487948720.7,9962,9.63,71638.8,-12.35,-15.01,-15.01,0,*51
1487948721.92,9963,9.63,71662.5,-12.39,-15.11,-15.35,0,*5A
1487948723.16,9964,9.63,71690.8,-12.39,-15.71,-16.17,0,*58
1487948724.37,9965,9.63,71662.0,-12.39,-15.99,-16.55,0,*59
1487948725.61,9966,9.63,71664.3,-12.39,-16.17,-16.55,0,*5F
1487948726.85,9967,9.56,71664.5,-12.39,-16.27,-16.75,0,*5F
1487948728.09,9968,9.63,71678.3,-12.39,-16.59,-17.59,0,*56
1487948729.34,9969,9.63,71702.0,-12.39,-17.63,-18.55,0,*5C
1487948730.57,9970,9.63,71674.0,-12.39,-18.11,-17.93,0,*5B
1487948731.83,9971,9.56,71670.5,-12.39,-17.79,-17.03,0,*52
1487948733.07,9972,9.56,71638.5,-12.39,-16.55,-16.13,0,*5E
1487948734.3,9973,9.63,71608.0,-12.39,-15.81,-15.71,0,*52
1487948735.53,9974,9.63,71642.8,-12.41,-15.71,-15.99,0,*53
1487948736.81,9975,9.63,71684.3,-12.41,-15.85,-16.51,0,*5E
1487948738.07,9976,9.63,71670.0,-12.41,-16.23,-16.79,0,*58
1487948739.31,9977,9.56,71624.5,-12.43,-17.21,-18.11,0,*58
1487948740.58,9978,9.63,71576.5,-12.41,-18.55,-19.23,0,*59
1487948741.81,9979,9.63,71600.5,-12.41,-18.99,-19.47,0,*5A
1487948743.04,9980,9.63,71574.0,-12.43,-18.89,-19.47,0,*5F
1487948744.3,9981,9.56,71538.3,-12.41,-19.31,-19.91,0,*55
1487948745.56,9982,9.63,71604.8,-12.41,-19.37,-19.81,0,*51
1487948746.8,9983,9.63,71636.0,-12.43,-18.45,-19.65,0,*5C
1487948748.03,9984,9.56,71674.8,-12.39,-18.65,-20.35,0,*5B
1487948749.27,9985,9.63,71662.0,-12.39,-21.27,-22.93,0,*58
1487948750.48,9986,9.63,71642.5,-12.39,-22.67,-23.39,0,*5D
1487948751.69,9987,9.63,71648.5,-12.39,-22.87,-23.09,0,*51
1487948752.96,9988,9.63,71628.8,-12.41,-21.97,-21.97,0,*56
1487948754.21,9989,9.63,71644.5,-12.41,-21.09,-21.97,0,*50
1487948755.47,9990,9.56,71670.0,-12.41,-21.47,-22.47,0,*5C
1487948756.74,9991,9.63,71662.3,-12.41,-21.53,-22.57,0,*59
1487948758.02,9992,9.63,71644.5,-12.41,-21.23,-22.17,0,*59
1487948759.23,9993,9.56,71718.5,-12.39,-21.47,-22.87,0,*5C
1487948760.44,9994,9.63,71728.0,-12.39,-22.41,-24.31,0,*55
1487948761.65,9995,9.63,71730.8,-12.39,-23.79,-24.77,0,*5C
1487948762.91,9996,9.56,71682.3,-12.39,-23.99,-24.67,0,*50
1487948764.14,9997,9.63,71650.3,-12.39,-23.85,-24.47,0,*5E
1487948765.4,9998,9.56,71606.5,-12.41,-22.97,-22.77,0,*59
1487948766.64,9999,9.56,71712.3,-12.39,-22.57,-23.33,0,*5A
1487948767.88,10000,9.63,71686.3,-12.39,-23.49,-24.51,0,*66
1487948769.12,10001,9.56,71682.0,-12.39,-24.61,-24.83,0,*65
1487948770.34,10002,9.63,71688.0,-12.39,-24.61,-24.51,0,*69
1487948771.63,10003,9.63,71634.8,-12.41,-24.41,-23.99,0,*66
1487948772.89,10004,9.56,71534.3,-12.41,-24.21,-23.59,0,*6B
1487948774.19,10005,9.56,71682.3,-12.41,-24.25,-23.85,0,*6F
1487948775.46,10006,9.63,71718.0,-12.41,-24.25,-23.43,0,*66
1487948776.68,10007,9.63,71736.0,-12.43,-24.35,-23.13,0,*61
1487948777.9,10008,9.63,71646.5,-12.43,-24.57,-22.97,0,*67
1487948779.15,10009,9.56,71656.8,-12.43,-24.21,-22.03,0,*6A
1487948780.37,10010,9.63,71684.3,-12.43,-23.75,-21.17,0,*62
1487948781.61,10011,9.63,71688.0,-12.43,-22.63,-19.81,0,*61
1487948782.82,10012,9.63,71724.8,-12.43,-21.47,-19.17,0,*68
1487948784.08,10013,9.63,71782.3,-12.41,-20.99,-19.03,0,*6C
1487948785.32,10014,9.56,71776.0,-12.43,-21.03,-18.73,0,*6D
1487948786.59,10015,9.63,71794.8,-12.41,-21.23,-18.11,0,*68
1487948787.86,10016,9.63,71772.0,-12.41,-19.47,-17.07,0,*6A
1487948789.12,10017,9.63,71750.0,-12.41,-18.45,-17.25,0,*68
1487948790.38,10018,9.63,71766.0,-12.43,-18.55,-17.79,0,*6D
1487948791.61,10019,9.63,71756.5,-12.41,-19.03,-17.49,0,*6F
1487948792.85,10020,9.63,71714.3,-12.43,-19.03,-17.03,0,*69
1487948794.08,10021,9.63,71760.8,-12.43,-18.69,-16.59,0,*6B
1487948795.34,10022,9.56,71728.5,-12.43,-17.55,-15.85,0,*6A
1487948796.61,10023,9.63,71722.3,-12.43,-16.51,-15.57,0,*61
1487948797.88,10024,9.63,71706.8,-12.43,-15.89,-15.85,0,*6F
1487948799.14,10025,9.63,71726.8,-12.43,-15.57,-16.23,0,*62
1487948800.38,10026,9.56,71694.3,-12.43,-15.85,-16.89,0,*6E
1487948801.64,10027,9.56,71750.3,-12.45,-16.17,-16.93,0,*6A
1487948802.89,10028,9.63,71756.0,-12.45,-16.45,-16.79,0,*66
1487948804.18,10029,9.63,71690.5,-12.45,-16.17,-16.23,0,*6F
1487948805.45,10030,9.63,71606.5,-12.45,-15.75,-15.85,0,*6F
1487948806.69,10031,9.63,71536.0,-12.45,-15.63,-15.67,0,*65
1487948807.99,10032,9.63,71552.3,-12.45,-15.85,-15.89,0,*6E
1487948809.22,10033,9.56,71656.5,-12.45,-15.49,-15.99,0,*6E
1487948810.52,10034,9.56,71726.5,-12.45,-15.39,-16.27,0,*68
1487948811.75,10035,9.63,71758.0,-12.45,-15.49,-16.45,0,*6A
1487948813.0,10036,9.63,71776.5,-12.45,-15.75,-16.75,0,*65
1487948814.27,10037,9.63,71794.8,-12.41,-16.37,-17.03,0,*65
1487948815.51,10038,9.63,71752.0,-12.43,-16.45,-17.41,0,*6B
1487948816.77,10039,9.63,71704.3,-12.41,-16.59,-17.55,0,*60
1487948817.99,10040,9.63,71736.8,-12.43,-16.59,-18.73,0,*67
1487948819.24,10041,9.63,71756.5,-12.41,-17.55,-21.09,0,*6E
1487948820.5,10042,9.63,71734.8,-12.41,-19.81,-22.57,0,*62
1487948821.74,10043,9.63,71774.0,-12.43,-20.83,-22.57,0,*69
1487948822.97,10044,9.56,71726.8,-12.43,-22.87,-23.53,0,*6D
1487948824.22,10045,9.56,71720.0,-12.41,-23.75,-23.43,0,*63
1487948825.48,10046,9.63,71716.5,-12.43,-23.99,-22.73,0,*62
1487948826.72,10047,9.63,71722.8,-12.43,-23.99,-21.93,0,*6E
1487948828.01,10048,9.56,71674.5,-12.41,-23.69,-21.03,0,*65
1487948829.25,10049,9.56,71690.3,-12.43,-23.09,-19.61,0,*6F
1487948830.47,10050,9.56,71686.5,-12.43,-22.27,-18.73,0,*68
1487948831.68,10051,9.63,71688.8,-12.43,-21.39,-17.69,0,*61
1487948832.92,10052,9.56,71678.8,-12.45,-20.29,-16.59,0,*66
1487948834.16,10053,9.56,71674.8,-12.43,-19.03,-15.85,0,*61
1487948835.4,10054,9.56,71658.5,-12.43,-17.49,-15.21,0,*68
1487948836.66,10055,9.56,71658.0,-12.43,-16.31,-15.01,0,*65
1487948837.87,10056,9.56,71640.0,-12.43,-15.29,-14.69,0,*63
1487948839.13,10057,9.56,71544.5,-12.43,-14.97,-14.83,0,*62
1487948840.39,10058,9.56,71660.8,-12.43,-14.75,-14.75,0,*68
1487948841.63,10059,9.63,71764.0,-12.45,-14.69,-14.89,0,*61
1487948842.91,10060,9.63,71672.3,-12.45,-14.83,-15.15,0,*6B
1487948844.17,10061,9.56,71636.8,-12.45,-14.69,-15.43,0,*6D
1487948845.44,10062,9.56,71738.0,-12.45,-15.39,-16.55,0,*6E
1487948846.71,10063,9.63,71726.5,-12.45,-15.53,-16.65,0,*60
1487948847.97,10064,9.63,71718.0,-12.45,-16.51,-18.69,0,*64
1487948849.24,10065,9.63,71750.0,-12.45,-17.73,-20.19,0,*68
1487948850.52,10066,9.56,71664.3,-12.45,-18.55,-20.89,0,*69
1487948851.81,10067,9.56,71672.0,-12.45,-18.93,-20.35,0,*65
1487948853.05,10068,9.63,71664.8,-12.45,-19.75,-21.09,0,*6D
1487948854.34,10069,9.56,71640.8,-12.45,-19.65,-21.53,0,*62
1487948855.63,10070,9.56,71658.8,-12.45,-20.79,-21.57,0,*69
1487948856.9,10071,9.56,71672.3,-12.45,-19.27,-21.09,0,*62
1487948858.17,10072,9.56,71624.8,-12.45,-20.63,-21.53,0,*64
1487948859.47,10073,9.56,71704.3,-12.45,-21.03,-22.77,0,*67
1487948860.76,10074,9.63,71684.8,-12.45,-23.29,-25.03,0,*6E
1487948862.01,10075,9.56,71738.3,-12.45,-24.35,-25.39,0,*6C
1487948863.26,10076,9.56,71752.0,-12.45,-24.51,-25.39,0,*6D
1487948864.51,10077,9.63,71766.0,-12.45,-24.57,-25.35,0,*66
1487948865.8,10078,9.56,71766.8,-12.45,-24.41,-25.03,0,*6B
1487948867.08,10079,9.63,71750.5,-12.45,-24.51,-24.41,0,*6C
1487948868.35,10080,9.56,71692.3,-12.45,-24.41,-23.13,0,*6B
1487948869.61,10081,9.56,71690.0,-12.45,-23.39,-21.33,0,*62
1487948870.87,10082,9.56,71676.5,-12.45,-21.09,-19.81,0,*62
1487948872.11,10083,9.56,71694.5,-12.43,-19.95,-19.81,0,*6B
1487948873.35,10084,9.56,71738.0,-12.45,-20.09,-19.75,0,*6E
1487948874.62,10085,9.56,71758.3,-12.45,-20.25,-19.61,0,*64
1487948875.86,10086,9.56,71770.3,-12.45,-19.95,-19.17,0,*67
1487948877.08,10087,9.63,71780.0,-12.43,-19.91,-19.17,0,*64
1487948878.27,10088,9.56,71768.8,-12.43,-20.29,-19.07,0,*63
1487948879.49,10089,9.56,71752.8,-12.43,-20.59,-18.41,0,*66
1487948880.75,10090,9.56,71740.3,-12.43,-19.81,-17.21,0,*68
1487948882.0,10091,9.56,71736.8,-12.43,-18.31,-16.59,0,*6D
1487948883.24,10092,9.56,71760.8,-12.43,-16.65,-15.71,0,*68
1487948884.51,10093,9.63,71786.8,-12.43,-15.89,-15.35,0,*68
1487948885.76,10094,9.56,71786.5,-12.43,-15.57,-15.29,0,*61
1487948887.02,10095,9.56,71790.8,-12.43,-15.57,-15.43,0,*6C
1487948888.29,10096,9.56,71784.3,-12.41,-15.75,-15.89,0,*6B
1487948889.52,10097,9.56,71788.8,-12.41,-16.93,-16.79,0,*6D
1487948890.78,10098,9.56,71802.8,-12.41,-17.83,-17.79,0,*63
1487948892.01,10099,9.63,71810.3,-12.41,-18.17,-18.25,0,*66
1487948893.21,10100,9.63,71796.3,-12.43,-20.29,-19.07,0,*62
1487948894.45,10101,9.56,71792.8,-12.43,-21.33,-18.69,0,*60
1487948895.68,10102,9.56,71708.3,-12.41,-20.69,-17.83,0,*64
1487948896.97,10103,9.56,71724.0,-12.41,-19.31,-16.23,0,*69
1487948898.19,10104,9.63,71754.5,-12.43,-17.69,-15.15,0,*69
1487948899.45,10105,9.56,71784.3,-12.43,-16.23,-14.55,0,*62
1487948900.71,10106,9.56,71770.8,-12.41,-15.29,-14.43,0,*6D
1487948901.96,10107,9.63,71786.0,-12.43,-14.55,-14.15,0,*67
1487948903.19,10108,9.56,71794.5,-12.41,-14.33,-14.15,0,*6A
1487948904.43,10109,9.56,71810.5,-12.41,-14.33,-14.33,0,*6F
1487948905.68,10110,9.56,71824.0,-12.41,-14.69,-14.47,0,*6B